Regional Weather Roundup
Issued by NWS

Home | Current Version | Previous Version | Text Only | Print | Product List | Glossary Off
Versions: 1 2 3 4 5 6 7 8 9 10 11 12 13 14 15 16 17 18 19 20 21 22 23 24 25 26 27 28 29 30 31 32 33 34 35 36 37 38 39 40 41 42 43 44 45 46 47 48 49 50

000
ASUS43 KLMK 160710
RWRKY
KENTUCKY REGIONAL WEATHER ROUNDUP
NATIONAL WEATHER SERVICE LOUISVILLE KY
200 AM EST MON JAN 16 2017

NOTE "FAIR" INDICATES FEW OR NO CLOUDS BELOW 12,000 FEET
WITH NO SIGNIFICANT WEATHER AND/OR OBSTRUCTIONS TO VISIBILITY.

KYZ001>023-026-027-061>063-070>075-160800-
WESTERN AND SOUTH CENTRAL KENTUCKY

CITY           SKY/WX    TMP DP  RH WIND       PRES   REMARKS
PADUCAH        CLOUDY    43  41  93 E6        30.20F FOG
HENDERSON      CLOUDY    41  37  87 E3        30.23S
OWENSBORO      CLOUDY    42  41  96 SE3       30.24S
HOPKINSVILLE   CLOUDY    45  45 100 E7        30.22R FOG
BOWLING GREEN  FOG       46  44  93 NE3       30.24S VSB 1/2
GLASGOW        FOG      N/A N/A N/A CALM      30.23S VSB 1/2
$$

KYZ024-025-028>034-038-045-046-053-160800-
NORTH CENTRAL KENTUCKY

CITY           SKY/WX    TMP DP  RH WIND       PRES   REMARKS
LOUISVILLE/SDF CLOUDY    42  39  89 E3        30.26F
LOUISVILLE/LOU CLOUDY    42  39  89 CALM      30.27F
FORT KNOX      FOG       40  40 100 NE5       30.23S VSB 1/2
$$

KYZ035>037-039>044-047>052-055>060-089>105-160800-
NORTHEAST KENTUCKY

CITY           SKY/WX    TMP DP  RH WIND       PRES   REMARKS
LEXINGTON      CLOUDY    41  39  93 E5        30.26F
COVINGTON      FOG       38  37  97 E7        30.28S VSB 3/4 WCI  33
FRANKFORT      CLOUDY    41  38  89 E5        30.26S
$$

KYZ054-064>069-076>088-106>120-160800-
SOUTHEAST KENTUCKY

CITY           SKY/WX    TMP DP  RH WIND       PRES   REMARKS
JACKSON        FOG       41  40  96 NE3       30.26F VSB 1/4
LONDON         FOG       45  43  93 CALM      30.26S VSB 1/2
SOMERSET       FOG       43  43 100 CALM      30.27F VSB 1/2
MIDDLESBORO    CLOUDY    51  51 100 CALM      30.28S
MONTICELLO     NOT AVBL
$$





USA.gov is the U.S. government's official web portal to all federal, state and local government web resources and services.